COSMOS 1269

Satellite information

Favourite Embed

Satellite Type and Status

PAYLOADIN ORBIT

Key statistics

Satellite COSMOS 1269 at a glance.

Uptime

16190

Days in orbit

Revolutions

≈ 14.3

Per day

Orbit

LEO

Low Earth Orbit

Inclination

74.1

Latest

Satellite identification and parameters

Extended collection of information and parameters for COSMOS 1269.

Object identification

Identified? True

Debris? False

Object name: COSMOS 1269

International designator: 1981-041A

Object number (NORAD): 12442

Object ID (CCSDS): 12442

Country: COMMONWEALTH OF INDEPENDENT STATES (CIS)

Current information (Y/N): Y

RCS size: LARGE

Orbital parameters

Period: 100.488 minutes

Inclination: 74.0551 deg

SMA: 7159.816 km

Apoapsis: 787.878 km

Periapsis: 775.485 km

RAAN: 169.8697 deg

Eccentricy: 0.00086546

Argument of periapsis: 112.195 deg

Mean anomaly: 248.0121 deg

Mean motion: 14.33012386 rev/day

Mean motion (dot): 0.0000031 rev/day2

B* drag term: 0.00012262665 1/REarth

Two-line elements (TLE)

Creation date: Sept. 3, 2025, 2:21 a.m.

Reference frame: TEME

Reference center: EARTH

Epoch: Sept. 2, 2025, 10:30 p.m. UTC

TLE line 0: 0 COSMOS 1269

TLE line 1: 1 12442U 81041A 25245.93798369 .00000310 00000-0 12263-3 0 9990

TLE line 2: 2 12442 74.0551 169.8697 0008655 112.1950 248.0121 14.33012386314834

Live tracking on map

Real-time ground track for satellite COSMOS 1269.

In-orbit conjunctions

A list of the most updated potential collisions computed for object COSMOS 1269.

Target Orbit TCA Probability of collision Miss distance Type
CZ-6A DEB LEO 2025-04-03 19:08:15 0.0001603685 595.0 (m) DEBRIS
DMSP 5D-2 F13 DEB SSO 2025-01-18 22:46:39 0.0001128363 491.0 (m) DEBRIS
FENGYUN 1C DEB SSO 2024-10-17 17:46:28 0.0002610253 198.0 (m) DEBRIS
FENGYUN 1C DEB SSO 2024-10-11 23:19:57 0.0001230281 473.0 (m) DEBRIS

Associated space launch

Military communications satellite

COSMOS 1269 was lifted into orbit during the mission ‘Kosmos-3M | Strela-2M 24’, on board a Kosmos-3M space rocket.

The launch took place on May 7, 1981, 1:21 p.m. from 132/1 (132L).

For more information about the launch, click the button.

Launch to space Kosmos-3M | Strela-2M 24
Kosmos-3M | Strela-2M 24

Agency: N/A

Status: Launch Successful

Launch date: May 7, 1981, 1:21 p.m. UTC

Rocket: Kosmos-3M

Launch pad: 132/1 (132L)

Location: Plesetsk Cosmodrome, Russian Federation

...

Latest news about this satellite

There are no fresh news available about this satellite. Check back as we update our databases every day.


Newsletter sign-up

Weekly statistics, charts and insights to help you stay on top of the space industry.